El-djazair II — 7TBR — position and weather

sailwx.info

Track history (hours):
 
Tides and Currents Weather Stations Pressure Air Temp Water Temp Dewpoint Dewpoint Depression Visibility Wind Speed Wind Dir Waves Ship Positions

El-djazair II

Last reported at 2014-Sep-02 17:25 UTC. Time now 2014-Sep-02 21:15 UTC.
Position N 36°02' W 000°28'.

Length 146 m; draft 6.3 m.

Type: Passenger vessel. MMSI: 605026190.

Date/timePositionNaut miles runAvg speedWind from/ knotsBaromVisibWave heightAir tempDewpointWater temp
2014-Sep-02 17:25N 36°02' W 000°28'1922.4
2014-Sep-02 16:33N 36°20' W 000°19'2222.3
2014-Sep-02 15:33N 36°41' W 000°09'2322.8
2014-Sep-02 14:33N 37°02' E 000°03'2323.1
2014-Sep-02 13:33N 37°23' E 000°13'2923.2
2014-Sep-02 12:19N 37°50' E 000°26'1823.1
2014-Sep-02 11:32N 38°07' E 000°35'4723.4
2014-Sep-02 09:32N 38°50' E 000°58'2323.0
2014-Sep-02 08:33N 39°11' E 001°10'2823.0
2014-Sep-02 07:21N 39°35' E 001°28'2624.4
2014-Sep-02 06:16N 39°57' E 001°46'1621.4
2014-Sep-02 05:32N 40°11' E 001°56'14923.3
2014-Sep-01 23:08N 42°23' E 003°26'3320.6
2014-Sep-01 21:33N 42°51' E 003°48'2322.7
2014-Sep-01 20:33N 42°59' E 004°17'2622.7
2014-Sep-01 19:26N 43°08' E 004°50'2022.5
2014-Sep-01 18:33N 43°15' E 005°16'5 5.0
2014-Sep-01 17:29N 43°18' E 005°22'0 0.0
2014-Sep-01 16:29N 43°18' E 005°22'0 0.0
2014-Sep-01 15:29N 43°18' E 005°22'0 0.0
2014-Sep-01 14:23N 43°18' E 005°22'3 3.9
2014-Sep-01 13:33N 43°16' E 005°18'2221.6
2014-Sep-01 12:33N 43°06' E 004°52'2222.2
2014-Sep-01 11:33N 42°54' E 004°26'2322.6
2014-Sep-01 10:33N 42°43' E 003°59'2222.0
2014-Sep-01 09:33N 42°24' E 003°44'2222.0
2014-Sep-01 08:33N 42°05' E 003°29'2222.0
2014-Sep-01 07:33N 41°46' E 003°15'2322.7
2014-Sep-01 06:34N 41°27' E 002°59'2523.0
2014-Sep-01 05:27N 41°05' E 002°42'2923.1
2014-Sep-01 04:13N 40°40' E 002°22'16023.1
2014-Aug-31 21:19N 38°21' E 000°42'1923.1
2014-Aug-31 20:30N 38°03' E 000°33'43 1.9
2014-Aug-30 22:19N 37°39' W 000°12'1419.2
2014-Aug-30 21:33N 37°54' W 000°10'11 0.7
2014-Aug-30 06:33N 37°59' W 000°22'2322.7
2014-Aug-30 05:33N 37°37' W 000°24'2722.6
2014-Aug-30 04:22N 37°10' W 000°28'4523.3
2014-Aug-30 02:26N 36°25' W 000°33'4322.2
2014-Aug-30 00:31N 35°43' W 000°38'1 0.2
2014-Aug-29 20:19N 35°43' W 000°39'0 0.0
2014-Aug-29 19:19N 35°43' W 000°39'0 0.0
2014-Aug-29 18:31N 35°43' W 000°39'15 7.2
2014-Aug-29 16:23N 35°57' W 000°32'1922.1
2014-Aug-29 15:33N 36°14' W 000°23'2322.8
2014-Aug-29 14:34N 36°35' W 000°14'2323.3
2014-Aug-29 13:34N 36°56' W 000°01'2323.3
2014-Aug-29 12:34N 37°18' E 000°10'2423.3
2014-Aug-29 11:33N 37°39' E 000°21'2423.3
2014-Aug-29 10:31N 38°02' E 000°33'2323.6
2014-Aug-29 09:33N 38°23' E 000°43'2423.6
2014-Aug-29 08:32N 38°45' E 000°55'2323.3
2014-Aug-29 07:33N 39°05' E 001°09'2323.2
2014-Aug-29 06:33N 39°24' E 001°27'2323.4
2014-Aug-29 05:33N 39°42' E 001°45'2323.4
2014-Aug-29 04:33N 40°01' E 002°04'2423.7
2014-Aug-29 03:33N 40°20' E 002°22'2423.9
2014-Aug-29 02:33N 40°39' E 002°41'2423.7
2014-Aug-29 01:33N 40°58' E 003°00'2423.9
2014-Aug-29 00:33N 41°17' E 003°20'2424.5
2014-Aug-28 23:33N 41°36' E 003°39'2523.6
2014-Aug-28 22:31N 41°56' E 003°59'2323.8
2014-Aug-28 21:32N 42°15' E 004°18'2323.2
2014-Aug-28 20:33N 42°33' E 004°37'2424.1
2014-Aug-28 19:33N 42°52' E 004°56'2423.6
2014-Aug-28 18:33N 43°11' E 005°15'8 7.7
2014-Aug-28 17:29N 43°18' E 005°22'1 1.0
2014-Aug-28 16:33N 43°18' E 005°21'2121.3
2014-Aug-28 15:33N 43°01' E 005°03'7624.1
2014-Aug-28 12:25N 42°00' E 004°02'2322.0
2014-Aug-28 11:23N 41°42' E 003°43'2022.9
2014-Aug-28 10:32N 41°26' E 003°27'2222.9
2014-Aug-28 09:33N 41°09' E 003°09'2323.3
2014-Aug-28 08:34N 40°50' E 002°51'2323.1
2014-Aug-28 07:33N 40°31' E 002°33'2323.0
2014-Aug-28 06:33N 40°13' E 002°14'2423.5
2014-Aug-28 05:33N 39°54' E 001°56'2323.3
2014-Aug-28 04:33N 39°36' E 001°38'4723.5
2014-Aug-28 02:33N 38°58' E 001°01'2323.1
2014-Aug-28 01:33N 38°37' E 000°50'2323.0
2014-Aug-28 00:33N 38°15' E 000°39'2323.0
2014-Aug-27 23:32N 37°54' E 000°28'2323.6
2014-Aug-27 22:33N 37°32' E 000°17'2423.7
2014-Aug-27 21:33N 37°10' E 000°06'2424.2
2014-Aug-27 20:33N 36°48' W 000°05'2423.8
2014-Aug-27 19:33N 36°26' W 000°16'2524.6
2014-Aug-27 18:31N 36°02' W 000°28'22 1.9
2014-Aug-27 07:10N 35°43' W 000°39'0 0.0
2014-Aug-27 06:22N 35°43' W 000°39'0 0.0
2014-Aug-27 05:31N 35°43' W 000°39'1111.1
2014-Aug-27 04:33N 35°53' W 000°41'1413.6
2014-Aug-27 03:33N 36°07' W 000°38'1515.4
2014-Aug-27 02:33N 36°20' W 000°29'1919.2
2014-Aug-27 01:33N 36°39' W 000°24'1919.1
2014-Aug-27 00:34N 36°58' W 000°21'1919.4
2014-Aug-26 23:33N 37°17' W 000°17'2019.7
2014-Aug-26 22:33N 37°36' W 000°13'2019.9
2014-Aug-26 21:33N 37°56' W 000°08'1717.2
2014-Aug-26 20:33N 38°12' W 000°15'14 1.7
2014-Aug-26 12:18N 38°20' W 000°30'3 0.9
2014-Aug-26 09:09N 38°18' W 000°27'1422.8
2014-Aug-26 08:33N 38°11' W 000°12'2323.3
2014-Aug-26 07:33N 38°01' E 000°14'2323.2
2014-Aug-26 06:33N 37°50' E 000°41'2323.4
2014-Aug-26 05:33N 37°40' E 001°07'2423.1
2014-Aug-26 04:32N 37°28' E 001°33'2323.2
2014-Aug-26 03:33N 37°18' E 001°59'2823.3
2014-Aug-26 02:22N 37°06' E 002°30'1922.7
2014-Aug-26 01:33N 36°57' E 002°50'7 1.1
2014-Aug-25 19:33N 36°54' E 002°58'2323.2
2014-Aug-25 18:33N 37°05' E 002°32'2422.9
2014-Aug-25 17:30N 37°16' E 002°05'2122.9
2014-Aug-25 16:33N 37°25' E 001°41'2323.1
2014-Aug-25 15:33N 37°36' E 001°15'2323.1
2014-Aug-25 14:33N 37°46' E 000°49'2323.2
2014-Aug-25 13:33N 37°57' E 000°23'2322.9
2014-Aug-25 12:33N 38°07' W 000°03'2322.8
2014-Aug-25 11:33N 38°18' W 000°28'15 2.0
2014-Aug-25 04:11N 38°12' W 000°12'8918.1
2014-Aug-24 23:14N 36°43' W 000°26'174 7.6
2014-Aug-24 00:17N 39°16' E 001°19'1923.4
2014-Aug-23 23:28N 39°31' E 001°34'2123.3
2014-Aug-23 22:33N 39°48' E 001°51'2423.7
2014-Aug-23 21:33N 40°07' E 002°09'2424.1
2014-Aug-23 20:33N 40°26' E 002°29'2423.9
2014-Aug-23 19:33N 40°45' E 002°48'  
Track history (hours):
 
Tides and Currents Weather Stations Pressure Air Temp Water Temp Dewpoint Dewpoint Depression Visibility Wind Speed Wind Dir Waves Ship Positions

El-djazair II

Last reported at 2014-Sep-02 17:25 UTC. Time now 2014-Sep-02 21:15 UTC.
Position N 36°02' W 000°28'.

Length 146 m; draft 6.3 m.

Type: Passenger vessel. MMSI: 605026190.

Date/timePositionNaut miles runAvg speedWind from/ knotsBaromVisibWave heightAir tempDewpointWater temp
2014-Sep-02 17:25N 36°02' W 000°28'1922.4
2014-Sep-02 16:33N 36°20' W 000°19'2222.3
2014-Sep-02 15:33N 36°41' W 000°09'2322.8
2014-Sep-02 14:33N 37°02' E 000°03'2323.1
2014-Sep-02 13:33N 37°23' E 000°13'2923.2
2014-Sep-02 12:19N 37°50' E 000°26'1823.1
2014-Sep-02 11:32N 38°07' E 000°35'4723.4
2014-Sep-02 09:32N 38°50' E 000°58'2323.0
2014-Sep-02 08:33N 39°11' E 001°10'2823.0
2014-Sep-02 07:21N 39°35' E 001°28'2624.4
2014-Sep-02 06:16N 39°57' E 001°46'1621.4
2014-Sep-02 05:32N 40°11' E 001°56'14923.3
2014-Sep-01 23:08N 42°23' E 003°26'3320.6
2014-Sep-01 21:33N 42°51' E 003°48'2322.7
2014-Sep-01 20:33N 42°59' E 004°17'2622.7
2014-Sep-01 19:26N 43°08' E 004°50'2022.5
2014-Sep-01 18:33N 43°15' E 005°16'5 5.0
2014-Sep-01 17:29N 43°18' E 005°22'0 0.0
2014-Sep-01 16:29N 43°18' E 005°22'0 0.0
2014-Sep-01 15:29N 43°18' E 005°22'0 0.0
2014-Sep-01 14:23N 43°18' E 005°22'3 3.9
2014-Sep-01 13:33N 43°16' E 005°18'2221.6
2014-Sep-01 12:33N 43°06' E 004°52'2222.2
2014-Sep-01 11:33N 42°54' E 004°26'2322.6
2014-Sep-01 10:33N 42°43' E 003°59'2222.0
2014-Sep-01 09:33N 42°24' E 003°44'2222.0
2014-Sep-01 08:33N 42°05' E 003°29'2222.0
2014-Sep-01 07:33N 41°46' E 003°15'2322.7
2014-Sep-01 06:34N 41°27' E 002°59'2523.0
2014-Sep-01 05:27N 41°05' E 002°42'2923.1
2014-Sep-01 04:13N 40°40' E 002°22'16023.1
2014-Aug-31 21:19N 38°21' E 000°42'1923.1
2014-Aug-31 20:30N 38°03' E 000°33'43 1.9
2014-Aug-30 22:19N 37°39' W 000°12'1419.2
2014-Aug-30 21:33N 37°54' W 000°10'11 0.7
2014-Aug-30 06:33N 37°59' W 000°22'2322.7
2014-Aug-30 05:33N 37°37' W 000°24'2722.6
2014-Aug-30 04:22N 37°10' W 000°28'4523.3
2014-Aug-30 02:26N 36°25' W 000°33'4322.2
2014-Aug-30 00:31N 35°43' W 000°38'1 0.2
2014-Aug-29 20:19N 35°43' W 000°39'0 0.0
2014-Aug-29 19:19N 35°43' W 000°39'0 0.0
2014-Aug-29 18:31N 35°43' W 000°39'15 7.2
2014-Aug-29 16:23N 35°57' W 000°32'1922.1
2014-Aug-29 15:33N 36°14' W 000°23'2322.8
2014-Aug-29 14:34N 36°35' W 000°14'2323.3
2014-Aug-29 13:34N 36°56' W 000°01'2323.3
2014-Aug-29 12:34N 37°18' E 000°10'2423.3
2014-Aug-29 11:33N 37°39' E 000°21'2423.3
2014-Aug-29 10:31N 38°02' E 000°33'2323.6
2014-Aug-29 09:33N 38°23' E 000°43'2423.6
2014-Aug-29 08:32N 38°45' E 000°55'2323.3
2014-Aug-29 07:33N 39°05' E 001°09'2323.2
2014-Aug-29 06:33N 39°24' E 001°27'2323.4
2014-Aug-29 05:33N 39°42' E 001°45'2323.4
2014-Aug-29 04:33N 40°01' E 002°04'2423.7
2014-Aug-29 03:33N 40°20' E 002°22'2423.9
2014-Aug-29 02:33N 40°39' E 002°41'2423.7
2014-Aug-29 01:33N 40°58' E 003°00'2423.9
2014-Aug-29 00:33N 41°17' E 003°20'2424.5
2014-Aug-28 23:33N 41°36' E 003°39'2523.6
2014-Aug-28 22:31N 41°56' E 003°59'2323.8
2014-Aug-28 21:32N 42°15' E 004°18'2323.2
2014-Aug-28 20:33N 42°33' E 004°37'2424.1
2014-Aug-28 19:33N 42°52' E 004°56'2423.6
2014-Aug-28 18:33N 43°11' E 005°15'8 7.7
2014-Aug-28 17:29N 43°18' E 005°22'1 1.0
2014-Aug-28 16:33N 43°18' E 005°21'2121.3
2014-Aug-28 15:33N 43°01' E 005°03'7624.1
2014-Aug-28 12:25N 42°00' E 004°02'2322.0
2014-Aug-28 11:23N 41°42' E 003°43'2022.9
2014-Aug-28 10:32N 41°26' E 003°27'2222.9
2014-Aug-28 09:33N 41°09' E 003°09'2323.3
2014-Aug-28 08:34N 40°50' E 002°51'2323.1
2014-Aug-28 07:33N 40°31' E 002°33'2323.0
2014-Aug-28 06:33N 40°13' E 002°14'2423.5
2014-Aug-28 05:33N 39°54' E 001°56'2323.3
2014-Aug-28 04:33N 39°36' E 001°38'4723.5
2014-Aug-28 02:33N 38°58' E 001°01'2323.1
2014-Aug-28 01:33N 38°37' E 000°50'2323.0
2014-Aug-28 00:33N 38°15' E 000°39'2323.0
2014-Aug-27 23:32N 37°54' E 000°28'2323.6
2014-Aug-27 22:33N 37°32' E 000°17'2423.7
2014-Aug-27 21:33N 37°10' E 000°06'2424.2
2014-Aug-27 20:33N 36°48' W 000°05'2423.8
2014-Aug-27 19:33N 36°26' W 000°16'2524.6
2014-Aug-27 18:31N 36°02' W 000°28'22 1.9
2014-Aug-27 07:10N 35°43' W 000°39'0 0.0
2014-Aug-27 06:22N 35°43' W 000°39'0 0.0
2014-Aug-27 05:31N 35°43' W 000°39'1111.1
2014-Aug-27 04:33N 35°53' W 000°41'1413.6
2014-Aug-27 03:33N 36°07' W 000°38'1515.4
2014-Aug-27 02:33N 36°20' W 000°29'1919.2
2014-Aug-27 01:33N 36°39' W 000°24'1919.1
2014-Aug-27 00:34N 36°58' W 000°21'1919.4
2014-Aug-26 23:33N 37°17' W 000°17'2019.7
2014-Aug-26 22:33N 37°36' W 000°13'2019.9
2014-Aug-26 21:33N 37°56' W 000°08'1717.2
2014-Aug-26 20:33N 38°12' W 000°15'14 1.7
2014-Aug-26 12:18N 38°20' W 000°30'3 0.9
2014-Aug-26 09:09N 38°18' W 000°27'1422.8
2014-Aug-26 08:33N 38°11' W 000°12'2323.3
2014-Aug-26 07:33N 38°01' E 000°14'2323.2
2014-Aug-26 06:33N 37°50' E 000°41'2323.4
2014-Aug-26 05:33N 37°40' E 001°07'2423.1
2014-Aug-26 04:32N 37°28' E 001°33'2323.2
2014-Aug-26 03:33N 37°18' E 001°59'2823.3
2014-Aug-26 02:22N 37°06' E 002°30'1922.7
2014-Aug-26 01:33N 36°57' E 002°50'7 1.1
2014-Aug-25 19:33N 36°54' E 002°58'2323.2
2014-Aug-25 18:33N 37°05' E 002°32'2422.9
2014-Aug-25 17:30N 37°16' E 002°05'2122.9
2014-Aug-25 16:33N 37°25' E 001°41'2323.1
2014-Aug-25 15:33N 37°36' E 001°15'2323.1
2014-Aug-25 14:33N 37°46' E 000°49'2323.2
2014-Aug-25 13:33N 37°57' E 000°23'2322.9
2014-Aug-25 12:33N 38°07' W 000°03'2322.8
2014-Aug-25 11:33N 38°18' W 000°28'15 2.0
2014-Aug-25 04:11N 38°12' W 000°12'8918.1
2014-Aug-24 23:14N 36°43' W 000°26'174 7.6
2014-Aug-24 00:17N 39°16' E 001°19'1923.4
2014-Aug-23 23:28N 39°31' E 001°34'2123.3
2014-Aug-23 22:33N 39°48' E 001°51'2423.7
2014-Aug-23 21:33N 40°07' E 002°09'2424.1
2014-Aug-23 20:33N 40°26' E 002°29'2423.9
2014-Aug-23 19:33N 40°45' E 002°48'  

Dump ship's entire track history